{"data":{"norad_id":63591,"epoch":"2026-05-24T23:57:52.478784Z","epoch_age_seconds":65242,"freshness":"FRESH","line1":"1 63591U 25076Y   26144.99852406  .00016547  00000+0  60932-3 0  9999","line2":"2 63591  42.9950 250.4947 0001157 285.7211  74.3513 15.27588204 63505","mean_motion":15.27588204,"eccentricity":0.0001157,"inclination_deg":42.995,"raan_deg":250.4947,"arg_perigee_deg":285.7211,"mean_anomaly_deg":74.3513,"bstar":0.00060932,"rev_number":6350,"period_min":94.266242448675,"perigee_km":482.23069403315,"apogee_km":483.81836681129,"semimajor_km":6861.1615304222,"source":"CELESTRAK","updated_at":"2026-05-25T13:38:20.050550Z"}}